Starlink 31631

operational
NORAD ID: 59459 Int'l Des: 2024-068 Owner: SPXS Country: US Constellation: starlink
LEOCIRCULAR

About Starlink 31631

Description loading...

Live Position

Loading 3D Globe...

Upcoming Passes

Altitude History

Altitude vs Time

uPlot chart will show altitude changes over time

Two-Line Element Set

1 59459U 24068E 25304.60087029 -.00000684 00000-0 -15325-4 0 9998
2 59459 43.0043 39.7978 0001441 282.1255 77.9435 15.27602483 88825
Epoch: Oct 31, 2025 • Age: 8 hours

Current Status

Altitude 485.9 km
Velocity 7.63 km/s
Sub-Earth Point 38.59°N, 77.4°E
Launch Date Apr 10, 2024
Age 1.5 years
Type internet

Technical Details

Classification Payload
Mass 730.00 kg
Dry Mass 700.00 kg
Total Mass 730.00 kg
Length 0.30 m
Diameter 4.10 m
Span 29.00 m
Shape Box + pan
Manufacturer SPXS
Bus Type Starlink V2M
Phase Status In Orbit
Owner/State SPXS/US

Large Constellations

Loading constellations...